Regional Weather Roundup
Issued by NWS

Home | Current Version | Previous Version | Graphics & Text | Print | Product List | Glossary Off
Versions: 1 2 3 4 5 6 7 8 9 10 11 12 13 14 15 16 17 18 19 20 21 22 23 24 25 26 27 28 29 30 31 32 33 34 35 36 37 38 39 40 41 42 43 44 45 46 47 48 49 50

000
ASUS43 KMKX 300221
RWRWI

WISCONSIN REGIONAL WEATHER ROUNDUP
NATIONAL WEATHER SERVICE MILWAUKEE/SULLIVAN WI
900 PM CDT MON JUN 29 2015

NOTE: "FAIR" INDICATES FEW OR NO CLOUDS BELOW 12,000 FEET WITH NO
SIGNIFICANT WEATHER AND/OR OBSTRUCTIONS TO VISIBILITY.

WIZ001-002-006>008-014>016-023>028-300300-
NORTHWEST WISCONSIN

CITY           SKY/WX    TMP DP  RH WIND       PRES   REMARKS
SUPERIOR ARPT  CLEAR     68  61  77 NE6       29.80R
ASHLAND        LGT RAIN  65  64  97 NE7       29.80R
HAYWARD        CLEAR     65  62  90 CALM      29.80S FOG
SIREN          CLEAR     64  62  93 CALM      29.81S
CUMBERLAND     PTCLDY    61  59  94 W6        29.81S
RICE LAKE      PTCLDY    63  60  90 CALM      29.81S
CHETEK         PTCLDY    61  61  97 W3        29.80S
LADYSMITH      PTCLDY    62  60  93 CALM      29.81S FOG
EAU CLAIRE     CLOUDY    61  58  90 CALM      29.78R FOG
MENOMONIE      MOCLDY    62  61  97 W5        29.80R FOG
NEW RICHMOND   PTCLDY    60  59  97 CALM      29.81S
OSCEOLA        PTCLDY    63  63 100 CALM      29.84R
$$

WIZ003>005-009-010-017-018-300300-
NORTH CENTRAL WISCONSIN

CITY           SKY/WX    TMP DP  RH WIND       PRES   REMARKS
MANITOWISH WTR PTCLDY    63  61  93 N6        29.80R
ARBOR VITAE    PTCLDY    63  61  92 CALM      29.79F
WOODRUFF       PTCLDY    63  61  92 CALM      29.79F
RHINELANDER    CLOUDY    63  60  90 CALM      29.80S
EAGLE RIVER    LGT RAIN  63  58  82 CALM      29.79S
LAND O LAKES   CLOUDY    63  61  94 CALM      29.81S
PHILLIPS       CLEAR     60  60  97 CALM      29.79F
TOMAHAWK       FOG       59  58  95 CALM      29.80S VSB 1/4
MEDFORD        CLOUDY    58  58  97 CALM      29.80S FOG
MERRILL        MOCLDY    61  60  98 CALM      29.80S
$$

WIZ029-030-035-036-043>047-300300-
CENTRAL WISCONSIN

CITY           SKY/WX    TMP DP  RH WIND       PRES   REMARKS
WAUSAU         CLOUDY    62  59  90 W6        29.77S
MOSINEE        NOT AVBL
MARSHFIELD     CLOUDY    61  56  83 N5        29.79R
STEVENS POINT  CLOUDY    59  58  95 CALM      29.78F
WAUPACA        CLOUDY    64  63  96 CALM      29.77S
WAUTOMA        CLOUDY    64  62  93 CALM      29.77F
WISC RAPIDS    CLOUDY    62  58  86 E3        29.79R
CAMP DOUGLAS   CLOUDY    61  61 100 E2        29.76F
$$

WIZ011>013-019>022-031-037>040-048>050-300300-
NORTHEAST WISCONSIN

CITY           SKY/WX    TMP DP  RH WIND       PRES   REMARKS
ANTIGO         CLOUDY    59  59  99 NW5       29.79S FOG
SHAWANO        CLOUDY    64  62  91 CALM      29.76S
OCONTO         CLOUDY    64  64 100 CALM      29.75S
STURGEON BAY   CLOUDY    64  55  72 S6        29.78S
GREEN BAY      CLOUDY    68  65  90 CALM      29.75F
MANITOWOC      CLOUDY    66  59  78 MISG      29.76F
APPLETON       NOT AVBL
CLINTONVILLE   CLOUDY   N/A N/A N/A CALM      29.76S
OSHKOSH        MOCLDY    65  61  87 W8        29.76S
$$

WIZ032>034-041-042-053>061-300300-
SOUTHWEST WISCONSIN

CITY           SKY/WX    TMP DP  RH WIND       PRES   REMARKS
LA CROSSE      LGT RAIN  65  62  90 SW8       29.79S
SPARTA         CLOUDY    61  59  94 CALM      29.78F
VIROQUA        CLOUDY    62  62 100 CALM      29.79F
BOSCOBEL       LGT RAIN  64  61  90 N3        29.76F
PRAIRIE DU CHI LGT RAIN  63  61  94 S3        29.80F
PLATTEVILLE    CLOUDY    67  62  85 N14G23    29.84R
$$

WIZ056-057-062-063-064-067-068-300300-
SOUTH CENTRAL WISCONSIN

CITY           SKY/WX    TMP DP  RH WIND       PRES   REMARKS
REEDSBURG      CLOUDY    61  60  94 SE3       29.77F
BARABOO/DELLS  CLOUDY    61  59  91 S5        29.77F
LONE ROCK      LGT RAIN  63  61  93 S8        29.78F
MINERAL POINT  LGT RAIN  63  61  94 N10       29.83F
MADISON        MOCLDY    65  58  78 W5        29.79S
MIDDLETON      CLOUDY    65  62  91 CALM      29.81F
WATERTOWN      TSTM      65  64  97 CALM      29.78F
MONROE         PTCLDY    70  64  83 NW3       29.79S
JANESVILLE     PTCLDY    72  63  73 VRB3      29.78S
$$

WIZ051-052-058>065-066-070>072-300300-
SOUTHEAST WISCONSIN

CITY           SKY/WX    TMP DP  RH WIND       PRES   REMARKS
MILWAUKEE      PTCLDY    65  60  84 SE7       29.78F
WAUKESHA       PTCLDY    66  61  82 SW6       29.79F
MILWAUKEE/TIMM CLEAR     70  59  68 SE3       29.79S
RACINE         CLEAR     64  60  87 S6        29.80F FOG
BURLINGTON     CLEAR     62  60  94 CALM      29.79S
KENOSHA        CLEAR     65  61  87 SE7       29.79F
FOND DU LAC    CLOUDY    67  63  87 SW5       29.77R
SHEBOYGAN      MOCLDY    65  60  84 S7        29.77F
WEST BEND      MOCLDY    64  59  82 CALM      29.78S
JUNEAU         CLOUDY    63  62  94 CALM      29.79F
$$

LSZ147-162-300300-
LAKE SUPERIOR

STATION/POSITION TIME  TEMP    WIND        PRES    WAVE
                       AIR SEA DIR/SP/G            HT/PER
                 (UTC) (F)     (DEG/KT/KT) (MB)    (FT/S)
W MID LAKE BUOY  0150   48 38   50/ 10/ 10 1009.0F   0
DEVILS ISLAND    0200   60      30/  7/  8 1009.3R
SAXON HARBOR     0140   65      60/  2/  7 1008.5R
$$

LMZ867-665-643>646-300300-
LAKE MICHIGAN

STATION/POSITION TIME  TEMP    WIND        PRES    WAVE
                       AIR SEA DIR/SP/G            HT/PER
                 (UTC) (F)     (DEG/KT/KT) (MB)    (FT/S)
CHAMBERS ISLAND  0100   67     190/  5/ 11 1007.8S
S GREEN BAY BUOY 0100   71 72  180/ 10/ 12 1008.9
N MID LAKE BUOY  0150   56 48  210/ 10/ 12 1008.0F   1/ 3
NORTHPORT PIER   0100   67     180/  2/  4 1007.8R
ALGOMA LAKESHORE 0110          220/  8/ 10   N/A
KEWAUNEE LAKESHO 0100   61     180/  9/ 11 1007.8F
SHEBOYGAN LAKESH 0100   62     190/ 12/ 12 1008.6F
PORT WASHINGTON  0100   64     190/  4/  6 1009.1
ATWATER BUOY     0200   62 60  180/  8/  8 1009.8F
MILWAUKEE LAKESH 0200   62     150/  8/  9   N/A
KENOSHA   LAKESH 0200   61     160/  7/  7 1008.5F
$$

TC  - TEMPERATURE IN CELSIUS
VSB - VISIBILITY IN STATUTE MILES
WCI - WIND CHILL INDEX
HX  - HEAT INDEX




USA.gov is the U.S. government's official web portal to all federal, state and local government web resources and services.